Tracking 35237 objects as of 6-Sep-2026
HD Live streaming from Space Station
objects crossing your sky now

FTV 1125


FTV 1125 is no longer on orbit


NORAD ID: 290
Int'l Code: 1962-017A
Launch date: April 28, 1962
Source: United States (US)
Launch site: AIR FORCE WESTERN TEST RANGE (AFWTR)
Decay date: 1962-05-26
Your satellite tracking list
Your tracking list is empty




NASA's NSSDC Master Catalog

Two Line Element Set (TLE):
1 00290U 62017  A 62137.57536680  .01050224 +00000-0 +00000-0 0  9990
2 00290 073.0672 250.4794 0140459 094.4287 152.6671 16.02492180002953
Source of the keplerian elements: AFSPC